Hagerstown, MD

6:54 PM EDT on October 22, 2019 (GMT -0400)
Hagerstown Regional-Henson

Weather History for KHGR - August, 2019

Change the Weather History Date:

Tuesday, August 27, 2019

  Actual Average Record
Temperature  
Mean Temperature 71 °F 72 °F  
Max Temperature 76 °F 81 °F 92 °F (2018)
Min Temperature 65 °F 62 °F 57 °F (2008)
Degree Days  
Heating Degree Days 0 0  
Month to date heating degree days 0 0  
Since 1 June heating degree days 5 18  
Since 1 July heating degree days 0 0  
Cooling Degree Days 6 7  
Month to date cooling degree days 309 235  
Year to date cooling degree days 1176 841  
Since 1 June cooling degree days 994 765  
Growing Degree Days 20 (Base 50)    
Moisture  
Dew Point 61 °F    
Average Humidity 74    
Maximum Humidity 84    
Minimum Humidity 64    
Precipitation  
Precipitation T in 0.09 in 0.15 in (2006)
Month to date precipitation 2.28 2.73  
Year to date precipitation 28.25 26.22  
Sea Level Pressure  
Sea Level Pressure 30.05 in    
Wind  
Wind Speed 8 mph (SSE)    
Max Wind Speed 15 mph    
Max Gust Speed 18 mph    
Visibility 10 miles    
Events Rain    
T = Trace of Precipitation, MM = Missing Value Source: NWS Daily Summary

Daily Weather History Graph

Daily Weather History Graph

Search for Another Location

Airport or City:

Astronomy

Aug. 27, 2019 Rise Set
Actual Time 6:34 AM EDT 7:50 PM EDT
Civil Twilight 6:06 AM EDT 8:18 PM EDT
Nautical Twilight 5:32 AM EDT 8:51 PM EDT
Astronomical Twilight 4:57 AM EDT 9:26 PM EDT
Moon 2:57 AM EDT (8/27) 6:08 PM EDT (8/27)
Length of Visible Light 14h 11m
Length of Day
13h 16m
Waning Crescent, 11% of the Moon is Illuminated
Aug 27
Waning Crescent
Aug 30
New
Sep 5
First Quarter
Sep 14
Full
Sep 21
Last Quarter

Hourly Weather History & Observations

Time (EDT) Temp. Dew Point Humidity Pressure Visibility Wind Dir Wind Speed Gust Speed Precip Events Conditions
12:53 AM 66.0 °F 57.9 °F 75% 30.14 in 10.0 mi SE 3.5 mph - N/A   Partly Cloudy
1:53 AM 66.0 °F 57.0 °F 73% 30.12 in 10.0 mi SSE 6.9 mph - N/A   Partly Cloudy
2:53 AM 66.0 °F 57.9 °F 75% 30.11 in 10.0 mi South 8.1 mph - N/A   Overcast
3:53 AM 66.0 °F 57.0 °F 73% 30.09 in 10.0 mi South 5.8 mph - N/A   Mostly Cloudy
4:53 AM 64.9 °F 57.9 °F 78% 30.07 in 10.0 mi South 6.9 mph - N/A   Overcast
5:53 AM 64.9 °F 57.9 °F 78% 30.07 in 10.0 mi SSE 3.5 mph - N/A   Overcast
6:53 AM 64.9 °F 57.9 °F 78% 30.09 in 10.0 mi South 8.1 mph - N/A   Overcast
7:53 AM 64.9 °F 59.0 °F 81% 30.09 in 10.0 mi South 6.9 mph - N/A   Overcast
8:53 AM 66.0 °F 59.0 °F 78% 30.09 in 10.0 mi SSE 6.9 mph - N/A   Overcast
9:53 AM 66.9 °F 60.1 °F 79% 30.09 in 10.0 mi SE 9.2 mph - 0.00 in   Overcast
10:53 AM 68.0 °F 61.0 °F 78% 30.08 in 10.0 mi South 8.1 mph - N/A   Overcast
11:16 AM 69.1 °F 61.0 °F 75% 30.06 in 10.0 mi SSE 10.4 mph - N/A   Overcast
11:53 AM 70.0 °F 61.0 °F 73% 30.07 in 10.0 mi South 12.7 mph - N/A   Overcast
12:53 PM 70.0 °F 62.1 °F 76% 30.06 in 10.0 mi South 9.2 mph - N/A   Overcast
1:53 PM 72.0 °F 62.1 °F 71% 30.03 in 10.0 mi SSE 12.7 mph - N/A   Overcast
2:53 PM 73.0 °F 63.0 °F 71% 30.02 in 10.0 mi SSE 12.7 mph - 0.00 in Rain Light Rain
3:53 PM 75.0 °F 63.0 °F 66% 30.01 in 10.0 mi SSE 8.1 mph - 0.00 in   Overcast
4:53 PM 75.0 °F 63.0 °F 66% 29.99 in 10.0 mi South 8.1 mph - N/A   Overcast
5:53 PM 75.0 °F 63.0 °F 66% 29.98 in 10.0 mi SSE 9.2 mph - N/A   Mostly Cloudy
6:22 PM 75.0 °F 63.0 °F 66% 29.97 in 10.0 mi South 8.1 mph - N/A   Overcast
6:53 PM 75.9 °F 64.0 °F 67% 29.98 in 10.0 mi South 5.8 mph - N/A   Overcast
7:53 PM 75.0 °F 64.0 °F 69% 29.99 in 10.0 mi SSE 5.8 mph - N/A   Overcast
8:53 PM 73.9 °F 64.0 °F 71% 29.99 in 10.0 mi SE 6.9 mph - N/A   Overcast
9:53 PM 72.0 °F 64.0 °F 76% 30.00 in 10.0 mi SE 6.9 mph - N/A   Mostly Cloudy
10:53 PM 71.1 °F 64.0 °F 78% 30.00 in 10.0 mi ESE 4.6 mph - N/A   Overcast
11:53 PM 71.1 °F 64.0 °F 78% 29.99 in 10.0 mi ESE 5.8 mph - N/A   Overcast